Location: Trebic
(49.2170°N, 15.8830°E)
Time: 17:06:26
(UTC+02:00)

Tiros 1 - All Passes

Search period start: 16 July 2019 00:00
Search period end: 26 July 2019 00:00
Orbit: 630 x 664 km, 48.4° (Epoch: 16 July)

Date Brightness Start Highest point End Pass type
(mag) Time Alt. Az. Time Alt. Az. Time Alt. Az.
16 Jul - 14:13:39 10° S 14:16:53 18° SE 14:20:08 10° E daylight
16 Jul - 15:53:44 10° SW 15:58:24 52° SSE 16:03:04 10° E daylight
16 Jul - 17:35:39 10° W 17:40:29 82° S 17:45:17 10° E daylight
16 Jul - 19:17:53 10° W 19:22:38 61° SSW 19:27:19 10° ESE daylight
16 Jul - 21:00:31 10° W 21:04:16 23° SW 21:08:00 10° SSE daylight
17 Jul - 14:38:20 10° SSW 14:42:34 31° SSE 14:46:48 10° E daylight
17 Jul - 16:19:36 10° WSW 16:24:24 71° SSE 16:29:11 10° E daylight
17 Jul - 18:01:45 10° W 18:06:35 79° S 18:11:22 10° ESE daylight
17 Jul - 19:44:03 10° W 19:48:33 41° SSW 19:53:00 10° SE daylight
17 Jul - 21:27:57 10° WSW 21:29:50 12° SW 21:31:43 10° SSW daylight
18 Jul - 13:23:53 10° S 13:26:57 17° SE 13:30:00 10° E daylight
18 Jul - 15:03:46 10° SW 15:08:24 50° SSE 15:13:04 10° E daylight
18 Jul - 16:45:39 10° W 16:50:28 82° S 16:55:17 10° E daylight
18 Jul - 18:27:52 10° W 18:32:38 63° SSW 18:37:21 10° ESE daylight
18 Jul - 20:10:26 10° W 20:14:19 25° SW 20:18:09 10° SSE daylight
19 Jul - 13:48:26 10° SSW 13:52:35 30° SSE 13:56:46 10° E daylight
19 Jul - 15:29:36 10° WSW 15:34:24 70° SSE 15:39:11 10° E daylight
19 Jul - 17:11:44 10° W 17:16:34 80° S 17:21:23 10° E daylight
19 Jul - 18:54:01 10° W 18:58:34 43° SSW 19:03:04 10° SE daylight
19 Jul - 20:37:38 10° WSW 20:39:54 13° SW 20:42:08 10° SSW daylight
20 Jul - 12:34:08 10° S 12:36:59 16° SE 12:39:51 10° E daylight
20 Jul - 14:13:48 10° SW 14:18:26 48° SSE 14:23:03 10° E daylight
20 Jul - 15:55:38 10° W 16:00:28 82° S 16:05:17 10° E daylight
20 Jul - 17:37:51 10° W 17:42:38 65° SSW 17:47:22 10° ESE daylight
20 Jul - 19:20:22 10° W 19:24:21 26° SW 19:28:17 10° SSE daylight
21 Jul - 12:58:32 10° SSW 13:02:37 28° SE 13:06:43 10° E daylight
21 Jul - 14:39:36 10° WSW 14:44:23 68° SSE 14:49:11 10° E daylight
21 Jul - 16:21:44 10° W 16:26:34 81° S 16:31:23 10° E daylight
21 Jul - 18:03:59 10° W 18:08:35 45° SSW 18:13:08 10° SE daylight
21 Jul - 19:47:24 10° WSW 19:49:58 14° SW 19:52:29 10° S daylight
22 Jul - 11:44:25 10° S 11:47:02 15° SE 11:49:40 10° ESE daylight
22 Jul - 13:23:51 10° SW 13:28:26 46° SSE 13:33:02 10° E daylight
22 Jul - 15:05:37 10° W 15:10:27 81° S 15:15:17 10° E daylight
22 Jul - 16:47:50 10° W 16:52:38 67° SSW 16:57:24 10° ESE daylight
22 Jul - 18:30:18 10° W 18:34:23 28° SW 18:38:25 10° SSE daylight
23 Jul - 12:08:39 10° SSW 12:12:39 27° SE 12:16:40 10° E daylight
23 Jul - 13:49:37 10° WSW 13:54:23 66° SSE 13:59:10 10° E daylight
23 Jul - 15:31:43 10° W 15:36:34 81° S 15:41:22 10° E daylight
23 Jul - 17:13:58 10° W 17:18:36 47° SSW 17:23:11 10° SE daylight
23 Jul - 18:57:13 10° WSW 19:00:00 15° SW 19:02:47 10° S daylight
24 Jul - 10:54:44 10° SSE 10:57:06 14° SE 10:59:27 10° ESE daylight
24 Jul - 12:33:54 10° SW 12:38:27 44° SSE 12:43:01 10° E daylight
24 Jul - 14:15:37 10° W 14:20:27 80° S 14:25:17 10° E daylight
24 Jul - 15:57:49 10° W 16:02:38 69° SSW 16:07:24 10° ESE daylight
24 Jul - 17:40:15 10° W 17:44:25 29° SSW 17:48:33 10° SSE daylight
25 Jul - 11:18:48 10° SSW 11:22:41 25° SE 11:26:36 10° E daylight
25 Jul - 12:59:38 10° WSW 13:04:23 64° SSE 13:09:10 10° E daylight
25 Jul - 14:41:42 10° W 14:46:33 82° S 14:51:22 10° E daylight
25 Jul - 16:23:57 10° W 16:28:36 49° SSW 16:33:14 10° SE daylight
25 Jul - 18:07:03 10° W 18:10:03 17° SW 18:13:03 10° S daylight
